FW8396 Weather Reports


Display with metric or nautical units.
time (UTC)temp
F
wind
direction
speed
MPH
gust
MPH
rain 1hr
in
rain 24hr
in
rain mn
in
humidity
%
barometer
mb
20260903190034 84 298 1.0 4.0 0.00 0.01 0.01 76 1015.3
20260903184535 85 288 3.0 10.0 0.00 0.01 0.01 74 1015.6
20260903183034 86 286 3.0 10.0 0.00 0.01 0.01 70 1015.8
20260903181535 87 258 2.0 6.0 0.00 0.01 0.01 68 1015.8
20260903180038 88 280 2.0 8.0 0.00 0.01 0.01 69 1015.9
20260903174534 90 96 1.0 6.0 0.00 0.01 0.01 72 1016.2
20260903173033 90 129 1.0 9.0 0.00 0.01 0.01 72 1016.0
20260903171534 90 113 2.0 9.0 0.00 0.01 0.01 73 1015.7
20260903170035 90 75 3.0 9.0 0.00 0.01 0.01 74 1015.9
20260903164543 89 126 2.0 7.0 0.00 0.01 0.01 76 1016.3
20260903163033 88 0 0.0 6.0 0.00 0.01 0.01 78 1016.4
20260903161534 87 101 1.0 4.0 0.00 0.01 0.01 81 1016.2
20260903160054 86 0 1.0 4.0 0.00 0.01 0.01 84 1016.2
20260903154533 85 0 0.0 3.0 0.01 0.01 0.01 86 1016.1
20260903153034 84 0 0.0 0.0 0.01 0.01 0.01 86 1016.0
20260903151534 84 0 0.0 1.0 0.01 0.01 0.01 87 1016.1
20260903150036 84 0 0.0 0.0 0.01 0.01 0.01 86 1016.2
20260903144535 84 0 0.0 2.0 0.00 0.00 0.00 85 1016.4
20260903143034 84 108 0.0 6.0 0.00 0.00 0.00 84 1016.6
20260903141536 84 0 1.0 4.0 0.00 0.00 0.00 83 1016.7
20260903140035 84 126 1.0 4.0 0.00 0.00 0.00 83 1016.7
20260903134537 84 0 0.0 4.0 0.00 0.00 0.00 83 1016.5
20260903133033 84 0 0.0 5.0 0.00 0.00 0.00 83 1016.7
20260903131533 84 134 0.0 5.0 0.00 0.00 0.00 83 1016.6
20260903130037 84 0 1.0 6.0 0.00 0.00 0.00 83 1016.0
20260903124538 84 0 0.0 4.0 0.00 0.00 0.00 83 1016.1
20260903123036 84 177 1.0 7.0 0.00 0.00 0.00 83 1015.8
20260903121534 84 0 1.0 6.0 0.00 0.00 0.00 84 1015.5
20260903120043 84 184 2.0 9.0 0.00 0.00 0.00 84 1015.5
20260903114536 84 146 1.0 4.0 0.00 0.00 0.00 83 1015.5
20260903113037 84 161 0.0 7.0 0.00 0.00 0.00 83 1015.5
20260903111533 84 157 2.0 8.0 0.00 0.00 0.00 82 1015.5
20260903110035 84 153 1.0 5.0 0.00 0.00 0.00 82 1015.6
20260903104538 84 139 1.0 6.0 0.00 0.00 0.00 82 1015.5
20260903103036 84 219 1.0 6.0 0.00 0.00 0.00 83 1015.4
20260903101535 84 165 3.0 7.0 0.00 0.00 0.00 83 1015.2
20260903100035 84 132 2.0 7.0 0.00 0.00 0.00 83 1015.1
20260903094537 84 157 2.0 7.0 0.00 0.00 0.00 83 1015.2
20260903093042 84 208 1.0 5.0 0.00 0.00 0.00 83 1015.2
20260903091531 84 136 1.0 6.0 0.00 0.00 0.00 82 1015.3
20260903090036 84 126 1.0 6.0 0.00 0.00 0.00 82 1015.4
20260903084532 84 154 1.0 12.0 0.00 0.00 0.00 83 1015.3
20260903083036 84 165 2.0 7.0 0.00 0.00 0.00 83 1015.2
20260903081535 84 171 1.0 7.0 0.00 0.00 0.00 83 1015.2
20260903080035 84 119 2.0 7.0 0.00 0.00 0.00 83 1015.2
20260903074535 84 167 2.0 7.0 0.00 0.00 0.00 83 1015.3
20260903073040 84 126 2.0 9.0 0.00 0.00 0.00 83 1015.3
20260903071538 84 136 1.0 8.0 0.00 0.00 0.00 83 1015.2
20260903070034 85 175 1.0 7.0 0.00 0.00 0.00 82 1015.4
20260903064541 85 132 2.0 6.0 0.00 0.00 0.00 82 1015.5
20260903063036 85 0 0.0 5.0 0.00 0.00 0.00 82 1015.8
20260903061543 85 169 1.0 4.0 0.00 0.00 0.00 82 1015.8
20260903060034 85 78 0.0 5.0 0.00 0.00 0.00 82 1016.1
20260903054535 85 0 1.0 6.0 0.00 0.00 0.00 82 1016.5
20260903053036 85 127 1.0 5.0 0.00 0.00 0.00 82 1016.4
20260903051537 85 145 1.0 6.0 0.00 0.00 0.00 82 1016.4
20260903050037 85 130 1.0 10.0 0.00 0.00 0.00 82 1016.3
20260903044535 85 0 1.0 6.0 0.00 0.00 0.00 82 1016.3
20260903043033 85 156 2.0 9.0 0.00 0.00 0.00 82 1016.3
20260903041540 85 0 1.0 13.0 0.00 0.00 0.00 82 1016.5
20260903040035 86 92 2.0 7.0 0.00 0.00 0.00 81 1016.3
20260903034547 86 0 2.0 7.0 0.00 0.00 0.00 82 1016.2
20260903033041 86 105 1.0 6.0 0.00 0.00 0.00 82 1016.3
20260903031539 86 112 1.0 8.0 0.00 0.00 0.00 82 1016.0
20260903030033 86 77 3.0 8.0 0.00 0.00 0.00 82 1015.9
20260903024538 86 103 1.0 9.0 0.00 0.00 0.00 81 1015.7
20260903023037 86 0 2.0 8.0 0.00 0.00 0.00 80 1015.6
20260903021535 87 128 1.0 7.0 0.00 0.00 0.00 79 1015.0
20260903020035 87 0 1.0 8.0 0.00 0.00 0.00 77 1015.0
20260903014549 87 140 1.0 11.0 0.00 0.00 0.00 75 1015.0
20260903013036 88 93 1.0 9.0 0.00 0.00 0.00 74 1015.0
20260903011537 88 101 5.0 11.0 0.00 0.00 0.00 73 1014.9
20260903010035 89 161 3.0 14.0 0.00 0.00 0.00 71 1014.3
20260903004546 89 0 2.0 9.0 0.00 0.00 0.00 66 1014.1
20260903003043 90 143 3.0 14.0 0.00 0.00 0.00 65 1014.2
20260903001535 90 175 2.0 13.0 0.00 0.00 0.00 63 1014.0
20260903000034 91 173 3.0 14.0 0.00 0.00 0.00 62 1013.6
20260902234532 92 144 4.0 10.0 0.00 0.00 0.00 62 1013.3
20260902233036 93 134 4.0 10.0 0.00 0.00 0.00 61 1013.3
20260902231536 93 161 4.0 11.0 0.00 0.00 0.00 61 1013.3
20260902230035 94 137 3.0 12.0 0.00 0.00 0.00 60 1013.0
20260902224533 94 118 1.0 12.0 0.00 0.00 0.00 60 1013.1
20260902223044 94 123 2.0 10.0 0.00 0.00 0.00 61 1013.3
20260902221535 95 120 3.0 11.0 0.00 0.00 0.00 60 1013.4
20260902220038 95 154 3.0 11.0 0.00 0.00 0.00 57 1013.4
20260902214535 95 124 2.0 10.0 0.00 0.01 0.00 59 1013.3
20260902213034 95 122 4.0 10.0 0.00 0.01 0.00 59 1013.5
20260902211534 96 162 1.0 6.0 0.00 0.01 0.00 57 1013.5
20260902210044 96 144 2.0 9.0 0.00 0.01 0.00 58 1013.7
20260902204533 97 101 3.0 10.0 0.00 0.01 0.00 57 1013.7
20260902203042 96 173 2.0 9.0 0.00 0.01 0.00 59 1013.9
20260902201543 96 153 4.0 11.0 0.00 0.01 0.00 59 1013.9
20260902200033 96 0 1.0 8.0 0.00 0.01 0.00 58 1014.1
20260902194533 96 196 3.0 8.0 0.00 0.01 0.00 58 1014.3
20260902193035 96 162 2.0 7.0 0.00 0.01 0.00 59 1014.6
20260902191546 95 175 1.0 11.0 0.00 0.01 0.00 60 1014.7